Location: Doughton Park
(36.4224°N, 81.1835°W)
Time: 03:35:41
(UTC-04:00)

Amateur Radio Satellites - All Passes

Search period start: 01 November 2014 03:05
Search period end: 02 November 2014 02:05
Location: Doughton Park, 36.4224°N, 81.1835°W

Satellite Date Start Highest point End Downlink Frequencies (MHz)
Time Altitude Azimuth
AO-27 01 Nov 03:11:48 03:16:43 41° 99° (E) 03:21:36 436.795 MHz FM
Oscar 16 01 Nov 03:21:09 03:26:12 60° 286° (WNW) 03:31:13 437.025 USB, Beacon 2401.1428
Gurwin Techsat 1B 01 Nov 03:30:31 03:35:16 32° 97° (E) 03:39:59 435.225 FM
Sapphire 01 Nov 03:34:37 03:39:40 40° 303° (WNW) 03:44:47 437.095 MHz 1200 baud AX-25 AFSK
TMSAT-1 01 Nov 03:36:43 03:41:11 27° 96° (E) 03:45:37 436.925 FM
AO-Echo 01 Nov 03:51:33 03:56:47 59° 286° (WNW) 04:01:55 ?
Uribyol 2 01 Nov 03:55:05 04:00:16 71° 286° (WNW) 04:05:23 436.500 FM
PCSat 01 Nov 03:57:05 04:01:31 25° 307° (NW) 04:05:59 145.825 MHz
AO-7 01 Nov 04:03:02 04:06:44 13° 91° (E) 04:10:24 29.400 - 29.500 MHz
ITAMSAT 1 01 Nov 04:03:13 04:08:23 63° 286° (WNW) 04:13:30 435.822 SSB
JAS-1B 01 Nov 04:06:59 04:13:41 42° 291° (WNW) 04:21:34 435.800 - 435.900 CW/SSB
Oscar 19 01 Nov 04:14:21 04:17:57 20° 294° (WNW) 04:21:32 437.125 CW, 437.150 USB
RS-15 01 Nov 04:40:21 04:48:53 24° 34° (NE) 04:57:37 29.354 - 29.394 USB, Beacon 29.352 USB
PANSAT 01 Nov 04:46:13 04:49:07 20° 170° (S) 04:52:00 not established
AO-27 01 Nov 04:51:59 04:55:55 22° 294° (WNW) 04:59:50 436.795 MHz FM
Gurwin Techsat 1B 01 Nov 05:10:37 05:15:05 28° 292° (WNW) 05:19:31 435.225 FM
TMSAT-1 01 Nov 05:16:23 05:21:04 33° 291° (WNW) 05:25:44 436.925 FM
Saudisat 1A 01 Nov 05:17:25 05:20:48 22° 111° (ESE) 05:24:12 436.775 MHz
OPAL 01 Nov 05:17:58 05:22:42 39° 69° (ENE) 05:27:23 ?
Uosat F 01 Nov 05:43:28 05:48:29 63° 102° (ESE) 05:53:27 435.120 FM
JAS-2 01 Nov 05:48:18 05:54:49 28° 92° (E) 06:01:02 435.800 - 435.900 CW/SSB, 435.910 FM
AO-7 01 Nov 05:52:08 06:00:31 82° 107° (ESE) 06:08:53 29.400 - 29.500 MHz
PANSAT 01 Nov 06:25:36 06:28:46 24° 183° (S) 06:31:55 not established
Hamsat 01 Nov 06:28:08 06:31:36 24° 96° (E) 06:35:03 145.90 MHz
RS-15 01 Nov 06:52:04 07:03:20 78° 59° (ENE) 07:15:06 29.354 - 29.394 USB, Beacon 29.352 USB
Saudisat 1A 01 Nov 06:56:13 07:00:10 32° 307° (NW) 07:04:08 436.775 MHz
OPAL 01 Nov 06:57:47 07:01:39 22° 263° (W) 07:05:30 ?
STRAND 1 01 Nov 07:15:05 07:20:08 62° 74° (ENE) 07:25:14 ?
Uosat F 01 Nov 07:24:07 07:26:41 14° 297° (WNW) 07:29:15 435.120 FM
JAS-2 01 Nov 07:32:25 07:40:05 57° 289° (WNW) 07:47:24 435.800 - 435.900 CW/SSB, 435.910 FM
MaSat-1 01 Nov 07:35:06 07:36:01 12° 57° (ENE) 07:36:55 437.345 MHz
AO-7 01 Nov 07:46:34 07:52:19 21° 305° (NW) 07:58:06 29.400 - 29.500 MHz
Hamsat 01 Nov 08:04:01 08:07:25 24° 290° (WNW) 08:10:50 145.90 MHz
PANSAT 01 Nov 08:06:02 08:08:22 16° 195° (SSW) 08:10:41 not established
SO-67 01 Nov 08:21:14 08:24:40 66° 101° (E) 08:28:05 435.3500 MHz FM
STRAND 1 01 Nov 08:57:19 08:59:42 13° 268° (W) 09:02:05 ?
RS-15 01 Nov 09:06:03 09:14:35 26° 257° (WSW) 09:23:25 29.354 - 29.394 USB, Beacon 29.352 USB
MaSat-1 01 Nov 09:10:19 09:11:12 12° 254° (WSW) 09:12:05 437.345 MHz
HO-68 01 Nov 09:21:07 09:26:46 24° 95° (E) 09:32:22 435.675 MHz FM
JAS-2 01 Nov 09:22:25 09:23:24 10° 307° (NW) 09:24:22 435.800 - 435.900 CW/SSB, 435.910 FM
ISS 01 Nov 09:49:46 09:52:56 46° 135° (SE) 09:56:08 145.800 FM
UKube-1 01 Nov 10:14:32 10:17:36 19° 95° (E) 10:20:39 145.840 MHz, 145.915 MHz
Sapphire 01 Nov 10:43:14 10:45:58 14° 46° (NE) 10:48:42 437.095 MHz 1200 baud AX-25 AFSK
Oscar 11 01 Nov 10:47:48 10:51:57 45° 99° (E) 10:56:05 145.825 FM, Beacon 2401.500 USB
KITSAT 1 01 Nov 10:56:29 11:04:22 60° 112° (ESE) 11:12:16 435.175 FM
SO-50 01 Nov 10:57:51 11:02:00 39° 114° (ESE) 11:06:16 436.795 FM
PCSat 01 Nov 11:03:49 11:07:56 22° 51° (NE) 11:12:02 145.825 MHz
FUNcube-1 01 Nov 11:07:14 11:10:53 29° 97° (E) 11:14:29 145.950 - 145.970 MHz USB
HO-68 01 Nov 11:07:46 11:14:46 57° 291° (WNW) 11:21:43 435.675 MHz FM
ISS 01 Nov 11:27:17 11:29:47 20° 331° (NNW) 11:32:18 145.800 FM
UKube-1 01 Nov 11:49:55 11:53:49 33° 289° (WNW) 11:57:43 145.840 MHz, 145.915 MHz
ZACube-1 01 Nov 12:00:30 12:04:37 59° 285° (WNW) 12:08:41 437.345 MHz
Sapphire 01 Nov 12:24:40 12:30:07 88° 244° (WSW) 12:35:32 437.095 MHz 1200 baud AX-25 AFSK
Oscar 11 01 Nov 12:25:28 12:27:43 14° 294° (WNW) 12:29:58 145.825 FM, Beacon 2401.500 USB
SO-50 01 Nov 12:39:12 12:42:41 22° 311° (NW) 12:46:15 436.795 FM
FUNcube-1 01 Nov 12:44:04 12:47:03 19° 292° (WNW) 12:50:00 145.950 - 145.970 MHz USB
PCSat 01 Nov 12:46:23 12:51:38 51° 248° (WSW) 12:56:50 145.825 MHz
KITSAT 1 01 Nov 12:53:15 13:00:11 31° 312° (NW) 13:07:10 435.175 FM
Oscar 16 01 Nov 12:58:34 13:01:45 17° 64° (ENE) 13:04:57 437.025 USB, Beacon 2401.1428
JAS-1B 01 Nov 13:02:40 13:06:30 19° 63° (ENE) 13:10:19 435.800 - 435.900 CW/SSB
UOSAT-12 01 Nov 13:15:52 13:20:29 86° 300° (WNW) 13:25:13 437.025 FM, 437.400 FM
AO-Echo 01 Nov 13:25:41 13:28:28 15° 63° (ENE) 13:31:17 ?
Uribyol 2 01 Nov 13:33:39 13:36:37 16° 63° (ENE) 13:39:36 436.500 FM
ITAMSAT 1 01 Nov 13:41:29 13:44:48 17° 64° (ENE) 13:48:08 435.822 SSB
Saudisat 1A 01 Nov 13:47:27 13:48:52 11° 43° (NE) 13:50:18 436.775 MHz
Oscar 19 01 Nov 13:48:26 13:53:22 50° 72° (ENE) 13:58:20 437.125 CW, 437.150 USB
AO-27 01 Nov 14:27:23 14:32:23 49° 72° (ENE) 14:37:24 436.795 MHz FM
Oscar 16 01 Nov 14:35:37 14:40:38 54° 260° (W) 14:45:40 437.025 USB, Beacon 2401.1428
Gurwin Techsat 1B 01 Nov 14:49:06 14:54:01 40° 71° (ENE) 14:58:57 435.225 FM
JAS-1B 01 Nov 14:51:11 14:56:47 49° 260° (W) 15:02:18 435.800 - 435.900 CW/SSB
TMSAT-1 01 Nov 14:54:59 14:59:41 34° 69° (ENE) 15:04:25 436.925 FM
AO-7 01 Nov 14:59:35 15:04:40 18° 53° (NE) 15:09:44 29.400 - 29.500 MHz
UOSAT-12 01 Nov 14:59:45 15:01:21 12° 318° (NW) 15:02:57 437.025 FM, 437.400 FM
AO-Echo 01 Nov 15:01:44 15:06:38 60° 259° (W) 15:11:43 ?
Uribyol 2 01 Nov 15:10:23 15:15:32 61° 259° (WSW) 15:20:43 436.500 FM
ITAMSAT 1 01 Nov 15:18:44 15:23:49 54° 259° (W) 15:28:56 435.822 SSB
Saudisat 1A 01 Nov 15:24:35 15:29:02 86° 241° (WSW) 15:33:27 436.775 MHz
Oscar 19 01 Nov 15:29:46 15:32:57 17° 267° (W) 15:36:09 437.125 CW, 437.150 USB
AO-27 01 Nov 16:08:40 16:12:06 18° 267° (W) 16:15:34 436.795 MHz FM
ISS 01 Nov 16:20:45 16:23:29 23° 31° (NNE) 16:26:12 145.800 FM
Gurwin Techsat 1B 01 Nov 16:30:01 16:34:04 22° 266° (W) 16:38:09 435.225 FM
TMSAT-1 01 Nov 16:35:10 16:39:35 27° 264° (W) 16:44:01 436.925 FM
AO-7 01 Nov 16:48:00 16:56:17 87° 72° (ENE) 17:04:36 29.400 - 29.500 MHz
Uosat F 01 Nov 16:54:07 16:59:05 67° 74° (ENE) 17:04:06 435.120 FM
Hamsat 01 Nov 17:20:34 17:22:31 13° 66° (ENE) 17:24:29 145.90 MHz
OPAL 01 Nov 17:32:43 17:34:21 12° 93° (E) 17:35:59 ?
JAS-2 01 Nov 17:40:59 17:47:02 53° 70° (ENE) 17:53:53 435.800 - 435.900 CW/SSB, 435.910 FM
ISS 01 Nov 17:57:08 18:00:14 36° 227° (SW) 18:03:18 145.800 FM
Uosat F 01 Nov 18:36:27 18:38:17 12° 269° (W) 18:40:07 435.120 FM
AO-7 01 Nov 18:45:08 18:49:54 16° 268° (W) 18:54:42 29.400 - 29.500 MHz
SO-67 01 Nov 18:52:37 18:54:32 14° 69° (ENE) 18:56:26 435.3500 MHz FM
KITSAT 1 01 Nov 18:53:20 18:59:08 21° 42° (NE) 19:04:54 435.175 FM
Hamsat 01 Nov 18:54:03 18:58:03 45° 261° (W) 19:02:04 145.90 MHz
OPAL 01 Nov 19:08:43 19:13:38 67° 288° (WNW) 19:18:32 ?
JAS-2 01 Nov 19:27:38 19:32:30 23° 270° (W) 19:37:50 435.800 - 435.900 CW/SSB, 435.910 FM
STRAND 1 01 Nov 19:28:53 19:33:09 26° 96° (E) 19:37:22 ?
SO-50 01 Nov 19:31:59 19:35:44 22° 49° (NE) 19:39:29 436.795 FM
HO-68 01 Nov 19:49:31 19:53:14 15° 56° (NE) 19:56:57 435.675 MHz FM
SO-67 01 Nov 20:24:21 20:27:14 25° 264° (W) 20:30:09 435.3500 MHz FM
KITSAT 1 01 Nov 20:47:32 20:55:39 88° 63° (ENE) 21:03:44 435.175 FM
STRAND 1 01 Nov 21:07:45 21:12:18 33° 291° (WNW) 21:16:50 ?
UKube-1 01 Nov 21:08:55 21:10:49 13° 65° (ENE) 21:12:43 145.840 MHz, 145.915 MHz
SO-50 01 Nov 21:11:50 21:16:29 45° 245° (WSW) 21:21:08 436.795 FM
RS-15 01 Nov 21:12:00 21:22:51 66° 114° (ESE) 21:33:35 29.354 - 29.394 USB, Beacon 29.352 USB
HO-68 01 Nov 21:32:42 21:39:52 85° 73° (ENE) 21:47:05 435.675 MHz FM
Oscar 11 01 Nov 21:40:44 21:44:19 26° 70° (ENE) 21:47:55 145.825 FM, Beacon 2401.500 USB
UOSAT-12 01 Nov 21:48:05 21:52:32 40° 55° (NE) 21:56:54 437.025 FM, 437.400 FM
FUNcube-1 01 Nov 22:01:32 22:04:46 20° 69° (ENE) 22:07:58 145.950 - 145.970 MHz USB
MaSat-1 01 Nov 22:40:27 22:44:15 48° 295° (WNW) 22:47:42 437.345 MHz
UKube-1 01 Nov 22:42:16 22:46:30 53° 259° (W) 22:50:47 145.840 MHz, 145.915 MHz
KITSAT 1 01 Nov 22:45:27 22:49:57 16° 259° (W) 22:54:28 435.175 FM
ZACube-1 01 Nov 22:53:47 22:58:19 78° 76° (ENE) 23:02:46 437.345 MHz
Oscar 11 01 Nov 23:17:00 23:20:26 23° 265° (W) 23:23:51 145.825 FM, Beacon 2401.500 USB
HO-68 01 Nov 23:24:38 23:28:18 15° 269° (W) 23:31:59 435.675 MHz FM
RS-15 01 Nov 23:26:06 23:35:52 36° 316° (NW) 23:45:41 29.354 - 29.394 USB, Beacon 29.352 USB
UOSAT-12 01 Nov 23:28:59 23:32:22 20° 250° (WSW) 23:35:42 437.025 FM, 437.400 FM
FUNcube-1 01 Nov 23:36:46 23:40:53 34° 262° (W) 23:44:57 145.950 - 145.970 MHz USB
Sapphire 02 Nov 01:22:51 01:26:15 17° 104° (ESE) 01:29:39 437.095 MHz 1200 baud AX-25 AFSK
PCSat 02 Nov 01:42:53 01:47:30 30° 108° (ESE) 01:52:09 145.825 MHz
RS-15 02 Nov 01:47:51 01:53:01 14° 349° (N) 01:58:14 29.354 - 29.394 USB, Beacon 29.352 USB
Oscar 19 02 Nov 01:03:19 01:07:13 22° 95° (E) 01:11:05 437.125 CW, 437.150 USB
JAS-1B 02 Nov 01:35:01 01:42:19 53° 101° (E) 01:50:56 435.800 - 435.900 CW/SSB
AO-27 02 Nov 01:43:48 01:47:44 21° 95° (E) 01:51:38 436.795 MHz FM
Oscar 16 02 Nov 01:49:44 01:54:51 66° 102° (ESE) 01:59:56 437.025 USB, Beacon 2401.1428
